Location: Unspecified
(51.0571°N, 0.0000°E)
Time: 10:44:06
(UTC+00:00)

Orbcomm G2 (FM04) - Visible Passes

Search period start: 04 April 2026 00:00
Search period end: 14 April 2026 00:00
Orbit: 746 x 801 km, 108.0° (Epoch: 28 March)

Date Brightness Start Highest point End Pass type
(mag) Time Alt. Az. Time Alt. Az. Time Alt. Az.
4 Apr 10.6 00:03:11 10° ENE 00:03:25 11° ENE 00:03:25 11° ENE visible
4 Apr 8.3 01:39:38 10° NNE 01:43:46 62° NE 01:43:46 62° NE visible
4 Apr 9.5 03:18:18 10° NNE 03:22:15 25° NW 03:24:08 20° WNW visible
5 Apr 9.2 01:05:28 10° NE 01:08:45 34° ENE 01:08:45 34° ENE visible
5 Apr 8.6 02:43:37 10° NNE 02:48:14 40° NW 02:49:07 37° WNW visible
5 Apr 10.2 04:23:03 10° N 04:25:14 13° NNW 04:27:26 10° NW visible
6 Apr 10.1 00:31:46 10° ENE 00:33:44 18° ENE 00:33:44 18° ENE visible
6 Apr 7.9 02:09:05 10° NNE 02:14:01 73° NW 02:14:05 73° WNW visible
6 Apr 9.8 03:48:00 10° N 03:51:27 19° NW 03:54:27 12° WNW visible
7 Apr 8.4 01:34:45 10° NE 01:39:04 55° E 01:39:04 55° E visible
7 Apr 9.1 03:13:12 10° NNE 03:17:29 31° NW 03:19:26 23° W visible
8 Apr 9.5 01:00:44 10° NE 01:04:03 28° E 01:04:03 28° E visible
8 Apr 8.3 02:38:35 10° NNE 02:43:22 53° NW 02:44:25 44° W visible
8 Apr 10.0 04:17:44 10° N 04:20:35 16° NNW 04:23:25 10° WNW visible
9 Apr 10.3 00:27:29 10° ENE 00:29:02 14° E 00:29:02 14° E visible
9 Apr 7.8 02:04:07 10° NNE 02:09:06 84° ESE 02:09:24 78° S visible
9 Apr 9.5 03:42:50 10° NNE 03:46:42 24° NW 03:49:45 14° W visible
10 Apr 8.7 01:29:54 10° NE 01:34:23 43° ESE 01:34:23 43° ESE visible
10 Apr 8.8 03:08:06 10° NNE 03:12:40 39° NW 03:14:44 27° W visible
11 Apr 9.7 00:56:08 10° NE 00:59:22 22° E 00:59:22 22° E visible
11 Apr 8.0 02:33:33 10° NNE 02:38:29 70° NW 02:39:44 49° WSW visible
11 Apr 9.8 04:12:30 10° N 04:15:52 19° NW 04:19:16 10° W visible
12 Apr 10.5 00:24:08 10° E 00:24:22 10° E 00:24:22 10° E visible
12 Apr 8.1 01:59:11 10° NE 02:04:07 63° ESE 02:04:43 57° SSE visible
12 Apr 9.2 03:37:41 10° NNE 03:41:56 29° NW 03:45:04 16° W visible
13 Apr 9.1 01:25:08 10° NE 01:29:34 32° ESE 01:29:42 32° ESE visible
13 Apr 8.4 03:03:02 10° NNE 03:07:49 50° NW 03:10:04 29° WSW visible
